Beaufort MCAS, SC

3:21 PM EDT on May 23, 2017 (GMT -0400)
Beaufort Marine Corps Air Station

Weather History for KNBC - July, 2012

Change the Weather History Date:

Friday, July 20, 2012

  Actual Average Record
Temperature  
Mean Temperature 83 °F -  
Max Temperature 93 °F 90 °F 103 °F (1942)
Min Temperature 75 °F 73 °F 66 °F (1938)
Cooling Degree Days 18    
Growing Degree Days 33 (Base 50)    
Moisture  
Dew Point 72 °F    
Average Humidity 75    
Maximum Humidity 91    
Minimum Humidity 50    
Precipitation  
Precipitation 0.01 in - - ()
Sea Level Pressure  
Sea Level Pressure 30.03 in    
Wind  
Wind Speed 10 mph (SW)    
Max Wind Speed 24 mph    
Max Gust Speed 36 mph    
Visibility 10 miles    
Events Rain , Thunderstorm    
Averages and records for this station are not official NWS values.
T = Trace of Precipitation, MM = Missing Value Source: NWS Daily Summary

Daily Weather History Graph

Daily Weather History Graph

Search for Another Location

Airport or City:

Trip Planner

Search our weather history database for the weather conditions in past years. The results will help you decide how hot, cold, wet, or windy it might be!

Date:

Astronomy

Jul. 20, 2012 Rise Set
Actual Time 6:29 AM EDT 8:28 PM EDT
Civil Twilight 6:02 AM EDT 8:55 PM EDT
Nautical Twilight 5:28 AM EDT 9:29 PM EDT
Astronomical Twilight 4:53 AM EDT 10:04 PM EDT
Moon 7:57 AM EDT (7/20) 9:18 PM EDT (7/20)
Length of Visible Light 14h 53m
Length of Day
13h 58m
New Moon, 2% of the Moon is Illuminated
Jul 20
New Moon
Jul 26
First Quarter
Aug 1
Full
Aug 9
Last Quarter
Aug 17
New

Hourly Weather History & Observations

Time (EDT) Temp. Heat Index Dew Point Humidity Pressure Visibility Wind Dir Wind Speed Gust Speed Precip Events Conditions
12:56 AM 78.1 °F - 72.0 °F 81% 30.05 in 10.0 mi SW 8.1 mph - N/A   Clear
1:56 AM 78.1 °F - 72.0 °F 81% 30.05 in 10.0 mi SW 9.2 mph - N/A   Clear
2:56 AM 77.0 °F - 72.0 °F 84% 30.04 in 10.0 mi SW 9.2 mph - N/A   Clear
3:56 AM 77.0 °F - 73.0 °F 88% 30.03 in 10.0 mi WSW 9.2 mph - N/A   Clear
4:56 AM 77.0 °F - 73.0 °F 88% 30.02 in 10.0 mi WSW 8.1 mph - N/A   Clear
5:56 AM 77.0 °F - 72.0 °F 84% 30.04 in 10.0 mi West 9.2 mph - N/A   Clear
6:56 AM 75.9 °F - 73.0 °F 91% 30.04 in 10.0 mi WSW 10.4 mph - N/A   Scattered Clouds
7:56 AM 79.0 °F - 73.0 °F 82% 30.06 in 10.0 mi WSW 11.5 mph - N/A   Scattered Clouds
8:56 AM 82.0 °F 87.4 °F 73.0 °F 74% 30.06 in 10.0 mi West 9.2 mph 17.3 mph N/A   Scattered Clouds
9:56 AM 84.9 °F 90.7 °F 72.0 °F 65% 30.07 in 10.0 mi West 12.7 mph - N/A   Scattered Clouds
10:56 AM 87.1 °F 93.6 °F 72.0 °F 61% 30.07 in 10.0 mi WSW 17.3 mph 21.9 mph N/A   Scattered Clouds
11:56 AM 88.0 °F 94.7 °F 72.0 °F 59% 30.06 in 10.0 mi SW 11.5 mph 18.4 mph N/A   Mostly Cloudy
12:56 PM 91.0 °F 98.2 °F 72.0 °F 53% 30.06 in 10.0 mi SW 13.8 mph 19.6 mph N/A   Mostly Cloudy
1:56 PM 91.0 °F 96.6 °F 70.0 °F 50% 30.04 in 10.0 mi West 11.5 mph 19.6 mph N/A   Scattered Clouds
2:56 PM 91.9 °F 98.4 °F 71.1 °F 50% 30.02 in 10.0 mi SW 10.4 mph - N/A   Scattered Clouds
3:56 PM 91.0 °F 102.9 °F 75.9 °F 61% 29.99 in 10.0 mi South 9.2 mph - 0.01 in   Scattered Clouds
4:56 PM 89.1 °F 101.4 °F 77.0 °F 67% 29.99 in 10.0 mi South 10.4 mph 20.7 mph N/A   Mostly Cloudy
5:36 PM 82.4 °F 87.2 °F 71.6 °F 70% 29.99 in 10.0 mi SW 24.2 mph 35.7 mph N/A Thunderstorm Thunderstorm
5:56 PM 77.0 °F - 72.0 °F 84% 30.01 in 10.0 mi West 10.4 mph 25.3 mph 0.00 in Rain , Thunderstorm Light Thunderstorms and Rain
6:39 PM 77.0 °F - 73.4 °F 89% 30.00 in 10.0 mi SW 8.1 mph - 0.00 in Rain Light Rain
6:56 PM 77.0 °F - 73.0 °F 88% 30.00 in 10.0 mi SW 10.4 mph - 0.00 in Rain Light Rain
7:56 PM 78.1 °F - 73.0 °F 84% 30.01 in 10.0 mi SW 5.8 mph - 0.00 in   Clear
8:56 PM 78.1 °F - 73.0 °F 84% 30.02 in 10.0 mi SSW 9.2 mph - N/A   Clear
9:56 PM 79.0 °F - 73.0 °F 82% 30.03 in 10.0 mi SW 6.9 mph - N/A   Clear
10:46 PM 78.8 °F - 69.8 °F 74% 30.04 in 10.0 mi SW 13.8 mph - N/A Thunderstorm Thunderstorm
10:56 PM 80.1 °F 83.2 °F 70.0 °F 71% 30.04 in 10.0 mi SW 11.5 mph - N/A Thunderstorm Thunderstorm
11:03 PM 78.8 °F - 69.8 °F 74% 30.04 in 10.0 mi SW 11.5 mph - N/A   Mostly Cloudy
11:56 PM 79.0 °F - 69.1 °F 72% 30.05 in 10.0 mi SW 11.5 mph - N/A   Clear